• MPC Preparation (Info)

  • MPEC 2010-S21 : 2010 SV3

    The following Minor Planet Electronic Circular may be linked-to from your own Web pages, but must not otherwise be redistributed electronically.

    A form allowing access to any MPEC is at the bottom of this page.


    Read MPEC 2010-S20 Read MPEC 2010-S22


    M.P.E.C. 2010-S21                                Issued 2010 Sept. 19, 01:48 UT
    
         The Minor Planet Electronic Circulars contain information on unusual
             minor planets and routine data on comets.  They are published
       on behalf of Commission 20 of the International Astronomical Union by the
              Minor Planet Center, Smithsonian Astrophysical Observatory,
                              Cambridge, MA 02138, U.S.A.
    
                 Prepared using the Tamkin Foundation Computer Network
    
                                  MPC@CFA.HARVARD.EDU
           URL https://www.minorplanetcenter.org/iau/mpc.html  ISSN 1523-6714
    
                                       2010 SV3
    
    Observations:
         K10S03V* C2010 09 17.31037 00 37 32.98 -08 36 14.6          19.7 V ES021703
         K10S03V  C2010 09 17.31668 00 37 31.69 -08 36 13.3          20.2 V ES021703
         K10S03V  C2010 09 17.32347 00 37 30.14 -08 36 12.7          19.3 V ES021703
         K10S03V  C2010 09 17.32984 00 37 28.70 -08 36 11.8          19.2 V ES021703
         K10S03V  C2010 09 17.37242 00 37 19.17 -08 36 03.9          19.2 V ES021703
         K10S03V  C2010 09 17.37300 00 37 19.06 -08 36 04.2          19.9 V ES021703
         K10S03V  C2010 09 17.37359 00 37 18.93 -08 36 04.6          19.5 V ES021703
         K10S03V  C2010 09 17.37417 00 37 18.90 -08 36 04.0          19.5 V ES021703
         K10S03V  C2010 09 17.37640900 37 17.88 -08 36 05.1          19.3 V ES021H21
         K10S03V  C2010 09 17.38274400 37 16.47 -08 36 03.9          19.2 V ES021H21
         K10S03V  C2010 09 17.38696300 37 15.54 -08 36 03.1          19.3 V ES021H21
         K10S03V  C2010 09 17.41417 00 37 09.87 -08 35 56.8          20.3 V ES021703
         K10S03V  C2010 09 17.41476 00 37 09.81 -08 35 56.1          19.6 V ES021703
         K10S03V  C2010 09 17.41531 00 37 09.68 -08 35 56.5          19.2 V ES021703
         K10S03V  C2010 09 17.41590 00 37 09.54 -08 35 57.2          19.2 V ES021703
         K10S03V KC2010 09 18.19174 00 34 26.90 -08 33 08.3                 ES021I36
         K10S03V KC2010 09 18.20963 00 34 23.07 -08 33 04.4                 ES021I36
         K10S03V KC2010 09 18.24213 00 34 16.17 -08 33 00.4          19.8 R ES021I19
         K10S03V KC2010 09 18.24523 00 34 15.43 -08 32 59.9          19.5 R ES021I19
         K10S03V KC2010 09 18.24766 00 34 14.96 -08 32 59.0          19.6 R ES021I19
         K10S03V  C2010 09 18.33469 00 33 57.27 -08 33 10.4          19.4 V ES021G96
         K10S03V  C2010 09 18.34352 00 33 55.40 -08 33 08.7          19.4 V ES021G96
         K10S03V  C2010 09 18.35226 00 33 53.49 -08 33 06.9          19.3 V ES021G96
         K10S03V  C2010 09 18.35676 00 33 52.35 -08 33 06.7          19.4   ES021704
         K10S03V  C2010 09 18.36112 00 33 51.58 -08 33 05.2          19.4 V ES021G96
         K10S03V  C2010 09 18.36933 00 33 49.70 -08 33 04.0          19.5   ES021704
         K10S03V  C2010 09 18.38229 00 33 46.89 -08 33 01.5          19.6   ES021704
         K10S03V  C2010 09 18.39484 00 33 44.14 -08 32 58.9          19.4   ES021704
         K10S03V  C2010 09 18.40742 00 33 41.54 -08 32 56.4          19.7   ES021704
         K10S03V KC2010 09 18.95065 00 31 51.54 -08 31 19.0          19.0 R ES021A17
         K10S03V KC2010 09 18.96233 00 31 49.04 -08 31 16.5          18.8 R ES021A17
         K10S03V KC2010 09 18.97401 00 31 46.63 -08 31 13.9          18.9 R ES021A17
    
    Observer details:
    703 Catalina Sky Survey.  Observer A. R. Gibbs.  Measurers J. D. Ahern,
        E. C. Beshore, A. Boattini, G. J. Garradd, A. R. Gibbs, A. D. Grauer,
        R. E. Hill, R. A. Kowalski, S. M. Larson, R. H. McNaught.  0.68-m Schmidt
        + CCD.
    704 Lincoln Laboratory ETS, New Mexico.  Observers M. Blythe, G. Spitz,
        R. Brungard, J. Paige, P. Festler.  1.0-m f/2.15 reflector + CCD.
    A17 Guidestar Observatory, Weinheim.  Observers M. Emmerich, S. Melchert.
        0.36-m f/6 Schmidt-Cassegrain + CCD.
    G96 Mt. Lemmon Survey.  Observer R. A. Kowalski.  Measurers J. D. Ahern,
        E. C. Beshore, A. Boattini, G. J. Garradd, A. R. Gibbs, A. D. Grauer,
        R. E. Hill, R. A. Kowalski, S. M. Larson, R. H. McNaught.  1.5-m reflector
        + CCD.
    H21 Astronomical Research Observatory, Westfield.  Observer R. Holmes.
        Measurer S. Foglia.  0.61-m f/4.5 astrograph + CCD.
    I19 Observatorio El Gato Gris, Tanti.  Observer C. Colazo.  0.35-m f/11
        Schmidt-Cassegrain + CCD + f/3.3 focal reducer.
    I36 Observatorio Los Campitos, Canuelas.  Observer C. Ambrosioni.  0.20-m
        Newtonian reflector + CCD.
    
    Orbital elements:
    2010 SV3                                                 Earth MOID = 0.0564 AU
    Epoch 2010 July 23.0 TT = JDT 2455400.5                 MPC
    M  17.63239              (2000.0)            P               Q
    n   0.52944054     Peri.  224.12695     -0.37006173     +0.92793642
    a   1.5132985      Node    24.25780     -0.81946419     -0.30343874
    e   0.5154403      Incl.    6.23082     -0.43764457     -0.21646922
    P   1.86           H   20.5           G   0.15           U   9
    Residuals in seconds of arc
    100917 703  1.2-  0.4+    100917 703  0.8-  0.3-    100918 G96  0.1+  0.1+
    100917 703  0.6+  0.6+    100917 703  0.2+  0.3+    100918 704  0.9-  0.1-
    100917 703  0.1+  0.0     100917 703  0.1+  0.2-    100918 G96  0.1+  0.1+
    100917 703  0.2-  0.2-    100917 703  0.0   1.0-    100918 704  0.0   0.2+
    100917 703  0.6-  0.2+    100918 I36  0.2-  0.2-    100918 704  0.3-  0.2+
    100917 703  0.3-  0.2-    100918 I36  0.6+  0.4+    100918 704  1.0-  0.4+
    100917 703  0.3-  0.7-    100918 I19  0.7+  0.1-    100918 704  0.4+  0.4+
    100917 703  1.2+  0.2-    100918 I19  0.4-  0.2-    100918 A17  0.4+  0.6-
    100917 H21  0.5+  0.2+    100918 I19  0.5+  0.3+    100918 A17  0.4-  0.3-
    100917 H21  0.3+  0.2+    100918 G96  0.2-  0.1-    100918 A17  0.1+  0.1+
    100917 H21  0.3+  0.2+    100918 G96  0.4+  0.1-
    
    Ephemeris:
    2010 SV3                 a,e,i = 1.51, 0.52, 6                   q = 0.7333
    Date    TT    R. A. (2000) Decl.     Delta      r     Elong.  Phase     V
    2010 09 11    01 02.29   -08 50.2    0.293    1.275   153.3    20.8    19.4
    2010 09 21    00 25.18   -08 24.0    0.356    1.355   168.8     8.3    19.5
    2010 10 01    23 59.27   -07 41.3    0.439    1.433   167.2     8.9    20.1
    2010 10 11    23 43.26   -06 47.5    0.540    1.507   155.6    15.9    20.9
    2010 10 21    23 35.18   -05 45.2    0.657    1.577   144.6    21.5    21.6
    2010 10 31    23 33.00   -04 36.6    0.787    1.644   134.7    25.4    22.2
    2010 11 10    23 35.18   -03 22.3    0.929    1.708   125.6    28.1    22.7
    2010 11 20    23 40.61   -02 02.8    1.081    1.768   117.3    29.8    23.2
    
    Carl W. Hergenrother         (C) Copyright 2010 MPC           M.P.E.C. 2010-S21
    

    Read MPEC 2010-S20 Read MPEC 2010-S22


    MPEC number:

    Enter an MPEC number in one of the following forms:

    • 1997-B01 (the full form)
    • J97B01 (the packed version of the full form)
    • B01 (the abbreviated form)